[[{"header":{"parameterUnit":"m.s-1","parameterCategory":1,"la1":30.2991,"la2":30.254,"lo1":-89.0895,"lo2":-89.0444,"dy":0.0017,"dx":0.0017,"nx":28,"ny":28,"refTime":"2025-11-09T03:00:00:Z","depth":0,"parameterNumber":2,"parameterNumberName":"U-component_of_WINDS"},"data":[0,0,0,0,0,0,0,0,0,0,0,0,0,0,0,0,0,0,0,0,0,0,0,0,0,0,0,0,0,0,0,0,0,0,0,0,0,0,0,0,0,0,0,0,0,0,0,0,0,0,0,0,0,0,0,0,0,0,3.1092,3.1093,0,3.1144,3.1145,3.1145,3.1121,3.1119,3.1118,3.1117,3.1169,3.1171,3.1174,0,0,0,0,0,0,0,0,0,0,0,0,0,3.0973,3.0976,3.1092,3.1093,3.1094,3.1144,3.1145,3.1145,3.1121,3.1119,3.1118,3.1116,3.1168,3.1171,3.1174,0,0,0,0,0,0,0,0,0,0,0,0,0,3.1025,3.0976,3.1092,3.1088,3.1088,3.1144,3.1145,3.1145,3.1121,3.1119,3.1117,3.1116,3.1167,3.117,3.1174,3.1237,0,0,3.1186,3.1188,0,0,0,0,0,0,0,0,3.1022,3.1029,3.1088,3.1088,3.1088,3.1124,3.1121,3.1176,3.1122,3.1109,3.1117,3.1115,3.1155,3.116,3.1174,3.124,3.1242,3.1187,3.1189,3.1191,3.1192,0,0,0,0,0,0,0,3.1018,3.1027,3.1113,3.1089,3.1089,3.1083,3.1088,3.1132,3.1142,3.111,3.1108,3.1114,3.1155,3.117,3.1175,3.1243,3.1186,3.119,3.1192,3.1194,3.1365,3.1367,0,0,0,0,0,0,3.1015,3.1024,3.1111,3.1114,3.105,3.1087,3.1093,3.1114,3.1142,3.1144,3.1116,3.1113,3.1164,3.117,3.1177,3.1253,3.1191,3.1194,3.1196,3.1363,3.1366,3.1368,0,0,0,0,0,0,3.1013,3.1023,3.1109,3.1069,3.1079,3.1091,3.1116,3.1116,3.1132,3.1147,3.1148,3.113,3.1163,3.1171,3.1223,3.1255,3.1196,3.1199,3.136,3.1364,3.1367,3.1407,0,0,0,0,0,0,3.1009,3.1022,3.1046,3.107,3.1082,3.1154,3.1118,3.1119,3.1139,3.1135,3.116,3.1162,3.1162,3.1217,3.1227,3.1259,3.1202,3.1358,3.1362,3.1366,3.1402,3.1411,3.1418,0,0,0,0,0,3.1005,3.1055,3.1047,3.1058,3.1112,3.1156,3.1163,3.1163,3.1141,3.1165,3.1175,3.1161,3.125,3.1223,3.1233,3.1267,3.1356,3.1361,3.1366,3.1399,3.1409,3.1418,0,0,0,0,0,0,3.1034,3.1058,3.105,3.1108,3.1131,3.1152,3.1182,3.1173,3.1202,3.1197,3.1196,3.1202,3.1256,3.1267,3.1236,3.1331,3.1299,3.1307,3.1321,3.1331,3.1339,3.1335,3.1206,0,0,0,0,0,3.1047,3.1081,3.11,3.115,3.1162,3.1171,3.119,3.1188,3.1211,3.122,3.1233,3.1256,3.1289,3.1311,3.1342,3.1404,3.141,3.1433,3.1441,3.1447,3.1453,3.1488,3.1499,3.1385,3.1385,3.1384,0,0,3.1074,3.1092,3.1113,3.1156,3.1173,3.1209,3.1178,3.1217,3.1244,3.1226,3.1276,3.1287,3.1312,3.137,3.1396,3.1381,3.1486,3.1453,3.1458,3.1461,3.1495,3.1505,3.1515,3.1388,3.1387,3.1387,0,0,3.1143,3.1159,3.1203,3.1221,3.1248,3.1254,3.1264,3.1288,3.1295,3.1345,3.1333,3.1365,3.1421,3.144,3.1457,3.1536,3.1524,3.1546,3.1586,3.162,3.1629,3.1637,3.1666,3.1676,3.1552,3.1552,3.1552,0,3.1173,3.1226,3.1226,3.1267,3.1287,3.1273,3.1318,3.1336,3.1371,3.1385,3.1368,3.144,3.1456,3.1518,3.1538,3.1552,3.1565,3.1542,3.1628,3.1636,3.1644,3.1671,3.1681,3.1555,3.1554,3.1554,3.1554,0,3.1263,3.1301,3.1333,3.1368,3.1392,3.1434,3.1441,3.1465,3.1462,3.147,3.1522,3.1541,3.1577,3.1592,3.1588,3.1655,3.1645,3.1628,3.1596,3.1657,3.1682,3.1693,3.1558,3.1557,3.1557,3.1556,0,0,3.1349,3.1385,3.1397,3.1414,3.1443,3.1472,3.1515,3.1551,3.1571,3.1597,3.1633,3.1682,3.1668,3.1687,3.1686,3.1717,3.1778,3.1696,3.1697,3.1711,3.1854,3.1866,3.1878,3.1771,3.1773,3.1775,3.1852,0,3.1419,3.1494,3.1496,3.1564,3.1599,3.1588,3.1626,3.1648,3.1657,3.1689,3.1699,3.1734,3.1712,3.1724,3.1753,3.1765,3.1807,3.1759,3.1805,3.1806,3.1798,3.1891,3.1903,3.1975,3.1861,3.1863,3.1864,0,3.1511,3.154,3.1612,3.1638,3.1653,3.1687,3.172,3.175,3.1776,3.1781,3.1804,3.1799,3.1843,3.1812,3.1873,3.184,3.186,3.1868,3.1871,3.1875,3.1839,3.1897,3.1997,3.2008,3.188,3.1879,3.1878,0,3.1566,3.1624,3.1675,3.169,3.1721,3.1745,3.1759,3.1783,3.1805,3.1835,3.1849,3.1884,3.1902,3.1929,3.1934,3.191,3.1996,3.1964,3.2001,3.2001,3.2019,3.2018,3.2123,3.2032,3.2032,3.2032,3.2031,0,3.1644,3.1689,3.1701,3.1732,3.1782,3.1785,3.1834,3.1847,3.1869,3.1903,3.1895,3.1927,3.1932,3.1966,3.197,3.2021,3.2029,3.2035,3.2035,3.2035,3.2034,3.2047,3.2042,3.2035,3.2034,3.2033,3.2033,0,3.1714,3.1724,3.1779,3.1805,3.1813,3.1849,3.1871,3.1901,3.1911,3.1954,3.1964,3.1979,3.2018,3.2026,3.2072,3.2075,3.2136,3.2131,3.2127,3.2126,3.2163,3.216,3.228,3.2297,3.2195,3.2196,3.2197,0,3.1763,3.1797,3.1828,3.185,3.1866,3.1902,3.1925,3.193,3.1954,3.1987,3.2014,3.2053,3.2084,3.2147,3.2162,3.2198,3.2194,3.2234,3.2199,3.2199,3.2195,3.2193,3.2196,3.224,3.2241,3.2242,3.2243,0,3.1849,3.1853,3.1886,3.1921,3.1949,3.1977,3.2004,3.2023,3.2031,3.2059,3.2099,3.2124,3.2172,3.2211,3.2247,3.2262,3.2254,3.2254,3.2265,3.2265,3.2261,3.2264,3.2145,3.2251,3.225,3.225,3.2249,3.2249,3.191,3.194,3.1967,3.2005,3.2026,3.2051,3.2082,3.2095,3.2129,3.2169,3.217,3.2215,3.2242,3.229,3.2307,3.2343,3.233,3.2345,3.2349,3.2352,3.2356,3.2256,3.2349,3.2349,3.2349,3.2349,3.2348,0,3.1995,3.2013,3.2047,3.2086,3.2116,3.2107,3.2137,3.2162,3.2202,3.2228,3.2259,3.2306,3.2345,3.2363,3.2401,3.2426,3.2424,3.2436,3.2434,3.2438,3.2365,3.2352,3.2437,3.2437,3.2437,3.2437,3.2437,3.2437,3.2043,3.2095,3.2102,3.2164,3.2181,3.2225,3.2243,3.2267,3.2288,3.2341,3.2373,3.2386,3.2409,3.2449,3.2484,3.2489,3.2503,3.2517,3.252,3.2452,3.2442,3.2434,3.2422,3.252,3.252,3.259,3.259,3.2591]},{"header":{"parameterUnit":"m.s-1","parameterCategory":1,"la1":30.2991,"la2":30.254,"lo1":-89.0895,"lo2":-89.0444,"dy":0.0017,"dx":0.0017,"nx":28,"ny":28,"refTime":"2025-11-09T03:00:00:Z","depth":0,"parameterNumber":3,"parameterNumberName":"V-component_of_WINDS"},"data":[0,0,0,0,0,0,0,0,0,0,0,0,0,0,0,0,0,0,0,0,0,0,0,0,0,0,0,0,0,0,0,0,0,0,0,0,0,0,0,0,0,0,0,0,0,0,0,0,0,0,0,0,0,0,0,0,0,0,-8.4426,-8.4428,0,-8.4641,-8.4643,-8.4646,-8.4589,-8.4584,-8.458,-8.4576,-8.479,-8.4799,-8.4808,0,0,0,0,0,0,0,0,0,0,0,0,0,-8.396,-8.3969,-8.4425,-8.4428,-8.4431,-8.464,-8.4643,-8.4646,-8.4589,-8.4584,-8.4579,-8.4574,-8.4786,-8.4798,-8.4809,0,0,0,0,0,0,0,0,0,0,0,0,0,-8.4167,-8.3972,-8.4425,-8.4428,-8.443,-8.464,-8.4643,-8.4647,-8.459,-8.4584,-8.4578,-8.4572,-8.4783,-8.4797,-8.4811,-8.5029,0,0,-8.4855,-8.4861,0,0,0,0,0,0,0,0,-8.4156,-8.4185,-8.4425,-8.4428,-8.4431,-8.4581,-8.4557,-8.4775,-8.4592,-8.4529,-8.4576,-8.4568,-8.4725,-8.4744,-8.4798,-8.5039,-8.5048,-8.4856,-8.4865,-8.4872,-8.4876,0,0,0,0,0,0,0,-8.4141,-8.4175,-8.451,-8.4428,-8.4432,-8.4417,-8.4439,-8.4598,-8.466,-8.4534,-8.4531,-8.4557,-8.4725,-8.4784,-8.4803,-8.5051,-8.4856,-8.4869,-8.4878,-8.4884,-8.5483,-8.5489,0,0,0,0,0,0,-8.4125,-8.4163,-8.4503,-8.4517,-8.4275,-8.443,-8.4455,-8.4539,-8.4658,-8.4671,-8.4563,-8.4554,-8.4763,-8.4786,-8.481,-8.5074,-8.4871,-8.4885,-8.4893,-8.5475,-8.5484,-8.5492,0,0,0,0,0,0,-8.4116,-8.4156,-8.4495,-8.4339,-8.4381,-8.4445,-8.454,-8.4547,-8.4606,-8.468,-8.469,-8.4612,-8.4758,-8.4789,-8.4976,-8.5081,-8.4892,-8.4905,-8.5467,-8.5478,-8.5488,-8.5604,0,0,0,0,0,0,-8.4103,-8.4153,-8.4238,-8.4342,-8.439,-8.4659,-8.4547,-8.4556,-8.4632,-8.4623,-8.4729,-8.474,-8.4756,-8.4954,-8.499,-8.5097,-8.4916,-8.5458,-8.5472,-8.5485,-8.5591,-8.5617,-8.564,0,0,0,0,0,-8.4086,-8.426,-8.4242,-8.4283,-8.4497,-8.4665,-8.4692,-8.4709,-8.4641,-8.4725,-8.4773,-8.4737,-8.5063,-8.4974,-8.5014,-8.5127,-8.5451,-8.5468,-8.5484,-8.558,-8.5612,-8.5639,0,0,0,0,0,0,-8.4163,-8.4273,-8.4255,-8.4468,-8.4558,-8.4655,-8.4763,-8.4742,-8.4852,-8.4838,-8.4852,-8.4876,-8.5067,-8.5115,-8.5013,-8.5344,-8.5247,-8.5272,-8.5306,-8.5338,-8.5362,-8.5346,-8.4928,0,0,0,0,0,-8.4205,-8.4335,-8.4423,-8.4602,-8.4648,-8.4698,-8.4772,-8.4777,-8.487,-8.4907,-8.4968,-8.5058,-8.5181,-8.5262,-8.5379,-8.5597,-8.562,-8.5695,-8.5719,-8.5739,-8.576,-8.5881,-8.5915,-8.5545,-8.5545,-8.5545,0,0,-8.4293,-8.4369,-8.4449,-8.4619,-8.469,-8.4822,-8.473,-8.4873,-8.4971,-8.4928,-8.5109,-8.5157,-8.5258,-8.5462,-8.5555,-8.5508,-8.5868,-8.5759,-8.5775,-8.5786,-8.5901,-8.5936,-8.5967,-8.5556,-8.5554,-8.5553,0,0,-8.452,-8.4591,-8.4749,-8.4822,-8.4931,-8.4964,-8.5002,-8.5103,-8.5135,-8.5317,-8.5288,-8.5403,-8.5615,-8.5689,-8.5754,-8.6013,-8.5983,-8.605,-8.6178,-8.6295,-8.6324,-8.635,-8.6444,-8.6477,-8.6071,-8.6071,-8.6071,0,-8.4615,-8.4815,-8.4832,-8.498,-8.5055,-8.5025,-8.5185,-8.5254,-8.5395,-8.5448,-8.5394,-8.5661,-8.5726,-8.5948,-8.6011,-8.6065,-8.6108,-8.6038,-8.6319,-8.6345,-8.637,-8.6459,-8.6494,-8.6079,-8.6078,-8.6077,-8.6076,0,-8.4927,-8.5066,-8.518,-8.5321,-8.5409,-8.5562,-8.5601,-8.5688,-8.5686,-8.5724,-8.591,-8.5989,-8.6122,-8.6175,-8.6173,-8.6397,-8.6365,-8.6315,-8.6218,-8.6412,-8.6496,-8.6531,-8.609,-8.6087,-8.6085,-8.6083,0,0,-8.5208,-8.5358,-8.5399,-8.5464,-8.5583,-8.569,-8.5841,-8.5975,-8.605,-8.6148,-8.6275,-8.6456,-8.6412,-8.6486,-8.6492,-8.6595,-8.6797,-8.6533,-8.6536,-8.658,-8.705,-8.7088,-8.7127,-8.6778,-8.6785,-8.679,-8.7042,0,-8.5447,-8.5716,-8.5737,-8.5979,-8.6108,-8.6082,-8.6214,-8.6301,-8.6341,-8.6455,-8.6497,-8.6626,-8.6557,-8.6602,-8.6703,-8.6751,-8.6892,-8.6733,-8.6896,-8.6902,-8.6873,-8.7171,-8.7211,-8.7445,-8.7075,-8.708,-8.7084,0,-8.5761,-8.5873,-8.6129,-8.6233,-8.6287,-8.6406,-8.6531,-8.6641,-8.6738,-8.676,-8.6845,-8.6838,-8.6992,-8.6889,-8.7102,-8.6994,-8.7062,-8.7096,-8.7105,-8.7121,-8.7005,-8.7196,-8.752,-8.7555,-8.7136,-8.7132,-8.7128,0,-8.5943,-8.6156,-8.6338,-8.6393,-8.6518,-8.6602,-8.6657,-8.6749,-8.6829,-8.6937,-8.6989,-8.7113,-8.7181,-8.7277,-8.7303,-8.7225,-8.7516,-8.7414,-8.7538,-8.7537,-8.76,-8.7596,-8.794,-8.7643,-8.7642,-8.7641,-8.7641,0,-8.6208,-8.6366,-8.6422,-8.6533,-8.671,-8.6731,-8.6904,-8.6954,-8.7037,-8.7157,-8.7141,-8.7253,-8.7281,-8.7398,-8.7419,-8.7593,-8.7624,-8.7645,-8.7649,-8.7647,-8.7645,-8.7692,-8.7677,-8.7651,-8.7649,-8.7647,-8.7645,0,-8.644,-8.6484,-8.668,-8.6783,-8.6813,-8.6938,-8.7026,-8.7133,-8.7171,-8.7323,-8.736,-8.7419,-8.7557,-8.7593,-8.7757,-8.7771,-8.7977,-8.7964,-8.7945,-8.7945,-8.8067,-8.8055,-8.8454,-8.8508,-8.8174,-8.8177,-8.818,0,-8.6607,-8.6729,-8.6846,-8.6927,-8.6987,-8.7116,-8.7199,-8.7225,-8.7311,-8.7433,-8.7525,-8.7662,-8.7772,-8.7994,-8.805,-8.8176,-8.8167,-8.8298,-8.8186,-8.8181,-8.8171,-8.8164,-8.8176,-8.832,-8.8323,-8.8326,-8.8328,0,-8.6899,-8.6916,-8.7036,-8.7165,-8.7265,-8.7367,-8.7464,-8.7531,-8.757,-8.7668,-8.781,-8.7897,-8.8066,-8.8202,-8.8329,-8.8384,-8.8364,-8.8364,-8.8399,-8.8399,-8.8383,-8.8395,-8.8004,-8.8354,-8.8352,-8.835,-8.8348,-8.8347,-8.7105,-8.7213,-8.7313,-8.7448,-8.7525,-8.7617,-8.7724,-8.7777,-8.7897,-8.8039,-8.8046,-8.8202,-8.8297,-8.8467,-8.8529,-8.865,-8.861,-8.8661,-8.8674,-8.8686,-8.8698,-8.8364,-8.8672,-8.8672,-8.8671,-8.867,-8.867,0,-8.7397,-8.7461,-8.7586,-8.7725,-8.7831,-8.7805,-8.7913,-8.8003,-8.8141,-8.8233,-8.8343,-8.8508,-8.864,-8.8708,-8.8839,-8.8923,-8.8917,-8.8957,-8.8951,-8.8964,-8.8725,-8.8682,-8.8959,-8.8959,-8.8959,-8.8959,-8.8959,-8.8959,-8.7562,-8.7744,-8.7772,-8.7992,-8.8054,-8.8209,-8.8272,-8.8357,-8.8431,-8.8617,-8.8728,-8.8772,-8.8855,-8.8993,-8.9113,-8.9129,-8.9178,-8.9224,-8.9235,-8.901,-8.8981,-8.8953,-8.8912,-8.9234,-8.9234,-8.9465,-8.9467,-8.9468]}]]